This demonstration page uses our WeatherBlox Daily Observations layout. Learn more.

Left ArrowRight Arrow

Hourly Observations for January 25, 2015

Temp ( °F °C ) Dew Point ( °F °C ) Humidity (%) Winds ( mph kmh ) Pressure ( in mb ) Visibility ( mi km ) Precip ( " mm )
12:52 am 00:52 Cloudy 43 6.1 38 3.3 82 82 NW 22 35 29.61 1003 10 16 0.00 0.03
1:04 am 01:04 Cloudy with Light Rain 43 6 37 3 81 81 NW 22 35 29.62 1003 6 10 0.00 0.00
1:52 am 01:52 Cloudy with Light Rain 41 5 38 3.3 89 89 NW 18 30 29.62 1003 10 16 0.00 0.03
2:52 am 02:52 Cloudy with Light Rain 40 4.4 37 2.8 89 89 NW 18 30 29.65 1004 10 16 0.01 0.25
3:52 am 03:52 Cloudy with Light Rain 37 2.8 34 1.1 89 89 NNW 29 46 29.67 1005 10 16 0.00 0.03
4:52 am 04:52 Cloudy with Light Rain 35 1.7 32 0 89 89 NNW 23 37 29.72 1007 10 16 0.00 0.03
5:37 am 05:37 Cloudy 35 1.7 32 0 89 89 NNW 23 37 29.77 1008 10 16 0.00 0.03
5:52 am 05:52 Cloudy 36 2.2 32 0 86 86 NNW 23 37 29.75 1007 10 16 0.00 0.03
6:52 am 06:52 Cloudy 36 2.2 32 0 86 86 NNW 25 41 29.78 1009 10 16 0.00 0.00
7:52 am 07:52 Cloudy 36 2.2 33 0.6 89 89 NNW 24 39 29.83 1010 9 14 0.00 0.03
8:52 am 08:52 Cloudy 36 2.2 33 0.6 89 89 NNW 26 43 29.86 1011 10 16 0.00 0.03
9:52 am 09:52 Cloudy 36 2.2 33 0.6 89 89 NNW 18 30 29.91 1013 10 16 0.00 0.00
10:52 am 10:52 Cloudy 37 2.8 33 0.6 86 86 N 18 30 29.96 1014 10 16 0.00 0.00
11:03 am 11:03 Cloudy 37 3 34 1 87 87 N 18 30 29.97 1015 10 16 0.00 0.00
11:52 am 11:52 Cloudy 39 3.9 33 0.6 79 79 N 20 31 29.97 1015 10 16 0.00 0.00
12:52 pm 12:52 Cloudy 40 4.4 33 0.6 77 77 N 20 31 29.99 1016 10 16 0.00 0.00
1:52 pm 13:52 Cloudy 41 5 32 0 70 70 N 14 22 30.00 1016 10 16 0.00 0.00
2:52 pm 14:52 Mostly Cloudy 43 6.1 32 0 65 65 NNW 16 26 30.02 1017 10 16 0.00 0.00
3:52 pm 15:52 Mostly Cloudy 40 4.4 31 -0.6 70 70 N 16 26 30.06 1018 10 16 0.00 0.00
4:52 pm 16:52 Mostly Cloudy 39 3.9 31 -0.6 73 73 NNW 10 17 30.09 1019 10 16 0.00 0.00
5:52 pm 17:52 Cloudy 38 3.3 32 0 79 79 NNW 6 9 30.10 1019 10 16 0.00 0.00
6:52 pm 18:52 Cloudy 37 2.8 32 0 82 82 Calm 30.10 1019 10 16 0.00 0.00
7:52 pm 19:52 Cloudy 37 2.8 32 0 82 82 WNW 7 11 30.10 1019 10 16 0.00 0.00
8:40 pm 20:40 Cloudy 36 2 32 0 87 87 Calm 30.15 1021 10 16 0.00 0.00
8:52 pm 20:52 Cloudy 36 2.2 32 0 86 86 Calm 30.11 1020 10 16 0.00 0.00
9:24 pm 21:24 Cloudy 36 2 32 0 87 87 Calm 30.15 1021 10 16 0.00 0.00
9:52 pm 21:52 Cloudy 35 1.7 31 -0.6 85 85 E 3 6 30.10 1019 10 16 0.00 0.00
10:52 pm 22:52 Clear 33 0.6 30 -1.1 89 89 S 3 6 30.09 1019 10 16 0.00 0.00
11:52 pm 23:52 Clear 29 -1.7 27 -2.8 92 92 SSE 7 11 30.09 1019 10 16 0.00 0.00

Powered by AerisWeather